When you browse on this site, cookies collect data to enhance your experience and personalize the content and advertising you see.
Visit our Privacy Policy to learn more. By continuing to use the site, you agree to this use of cookies and data.
EN

Hourly Weather Tyrgowishte

Today, 4 July, Saturday

Time Temperature Precipitation Wind Pressure Humidity
00:00 +22°C° 0 mm 1 mps 741 mmHg 75%
01:00 +22°C° 0 mm 1 mps 741 mmHg 76%
02:00 +22°C° 0 mm 1 mps 741 mmHg 78%
03:00 +21°C° 0 mm 1 mps 741 mmHg 79%
04:00 +21°C° 0 mm 1 mps 741 mmHg 81%
05:00 +21°C° 0 mm 1 mps 741 mmHg 83%
06:00 +23°C° 0 mm 2 mps 741 mmHg 80%
07:00 +24°C° 0 mm 2 mps 741 mmHg 78%
08:00 +26°C° 0 mm 3 mps 742 mmHg 75%
09:00 +27°C° 0 mm 3 mps 742 mmHg 70%
10:00 +29°C° 0 mm 3 mps 742 mmHg 64%
11:00 +30°C° 0 mm 3 mps 742 mmHg 59%
12:00 +31°C° 0 mm 2 mps 742 mmHg 55%
13:00 +31°C° 0 mm 2 mps 742 mmHg 52%
14:00 +32°C° 0 mm 2 mps 741 mmHg 48%
15:00 +32°C° 0 mm 1 mps 741 mmHg 49%
16:00 +32°C° 0 mm 1 mps 741 mmHg 51%
17:00 +32°C° 0 mm 1 mps 741 mmHg 52%
18:00 +30°C° 0 mm 1 mps 741 mmHg 57%
19:00 +28°C° 0 mm 1 mps 740 mmHg 62%
20:00 +24°C° 0 mm 0 mps 740 mmHg 66%
21:00 +24°C° 0 mm 0 mps 741 mmHg 69%
22:00 +23°C° 0 mm 0 mps 741 mmHg 71%
23:00 +24°C° 0 mm 1 mps 741 mmHg 74%

Tomorrow, 5 July, Sunday

Time Temperature Precipitation Wind Pressure Humidity
00:00 +24°C° 0.3 mm 1 mps 741 mmHg 77%
01:00 +23°C° 0.3 mm 1 mps 741 mmHg 80%
02:00 +22°C° 0.3 mm 1 mps 741 mmHg 84%
03:00 +22°C° 0 mm 1 mps 741 mmHg 86%
04:00 +22°C° 0 mm 1 mps 741 mmHg 89%
05:00 +21°C° 0 mm 1 mps 741 mmHg 92%
06:00 +21°C° 0 mm 2 mps 741 mmHg 89%
07:00 +24°C° 0 mm 2 mps 741 mmHg 86%
08:00 +25°C° 0 mm 2 mps 741 mmHg 83%
09:00 +26°C° 0.4 mm 2 mps 741 mmHg 78%
10:00 +27°C° 0.4 mm 2 mps 741 mmHg 72%
11:00 +29°C° 0.4 mm 2 mps 741 mmHg 67%
12:00 +30°C° 0.2 mm 3 mps 741 mmHg 63%
13:00 +31°C° 0.2 mm 3 mps 741 mmHg 58%
14:00 +32°C° 0.2 mm 4 mps 741 mmHg 53%
15:00 +32°C° 0.1 mm 4 mps 740 mmHg 55%
16:00 +31°C° 0.1 mm 3 mps 740 mmHg 56%
17:00 +31°C° 0.1 mm 3 mps 740 mmHg 57%
18:00 +29°C° 0.4 mm 3 mps 740 mmHg 63%
19:00 +27°C° 0.4 mm 2 mps 740 mmHg 70%
20:00 +26°C° 0.4 mm 2 mps 740 mmHg 77%
21:00 +25°C° 1 mm 2 mps 740 mmHg 80%
22:00 +24°C° 1 mm 1 mps 740 mmHg 84%
23:00 +23°C° 1 mm 1 mps 741 mmHg 88%

Day after tomorrow, 6 July, Monday

Time Temperature Precipitation Wind Pressure Humidity
00:00 +23°C° 0.4 mm 1 mps 740 mmHg 90%
01:00 +22°C° 0.4 mm 1 mps 740 mmHg 92%
02:00 +21°C° 0.4 mm 2 mps 740 mmHg 94%
03:00 +22°C° 0.1 mm 1 mps 740 mmHg 94%
04:00 +21°C° 0.1 mm 1 mps 740 mmHg 95%
05:00 +21°C° 0.1 mm 1 mps 739 mmHg 96%
06:00 +23°C° 0.1 mm 1 mps 740 mmHg 92%
07:00 +24°C° 0.1 mm 2 mps 740 mmHg 88%
08:00 +26°C° 0.1 mm 2 mps 740 mmHg 84%
09:00 +27°C° 0.6 mm 2 mps 740 mmHg 76%
10:00 +29°C° 0.6 mm 3 mps 740 mmHg 69%
11:00 +30°C° 0.6 mm 3 mps 740 mmHg 62%
12:00 +31°C° 0.1 mm 3 mps 739 mmHg 60%
13:00 +32°C° 0.1 mm 4 mps 739 mmHg 58%
14:00 +33°C° 0.1 mm 4 mps 739 mmHg 55%
15:00 +32°C° 0.3 mm 4 mps 738 mmHg 57%
16:00 +31°C° 0.3 mm 3 mps 738 mmHg 59%
17:00 +31°C° 0.3 mm 3 mps 738 mmHg 60%
18:00 +29°C° 0.4 mm 2 mps 738 mmHg 66%
19:00 +27°C° 0.4 mm 1 mps 738 mmHg 71%
20:00 +26°C° 0.4 mm 1 mps 738 mmHg 77%
21:00 +23°C° 0.1 mm 0 mps 738 mmHg 79%
22:00 +22°C° 0.1 mm 0 mps 738 mmHg 81%
23:00 +22°C° 0.1 mm 0 mps 738 mmHg 83%

7 July, Tuesday

Time Temperature Precipitation Wind Pressure Humidity
00:00 +21°C° 0 mm 0 mps 738 mmHg 84%
01:00 +21°C° 0 mm 0 mps 738 mmHg 85%
02:00 +23°C° 0 mm 1 mps 737 mmHg 86%
03:00 +22°C° 0 mm 1 mps 737 mmHg 86%
04:00 +22°C° 0 mm 1 mps 737 mmHg 87%
05:00 +22°C° 0 mm 1 mps 737 mmHg 88%
06:00 +23°C° 0 mm 1 mps 737 mmHg 83%
07:00 +25°C° 0 mm 1 mps 738 mmHg 79%
08:00 +27°C° 0 mm 1 mps 738 mmHg 74%
09:00 +28°C° 0.2 mm 1 mps 738 mmHg 67%
10:00 +30°C° 0.2 mm 1 mps 738 mmHg 60%
11:00 +31°C° 0.2 mm 1 mps 738 mmHg 54%
12:00 +32°C° 0 mm 2 mps 738 mmHg 51%
13:00 +32°C° 0 mm 2 mps 738 mmHg 47%
14:00 +34°C° 0 mm 2 mps 738 mmHg 44%
15:00 +34°C° 0 mm 2 mps 738 mmHg 46%
16:00 +34°C° 0 mm 2 mps 738 mmHg 47%
17:00 +32°C° 0 mm 1 mps 738 mmHg 48%
18:00 +30°C° 1.2 mm 3 mps 738 mmHg 61%
19:00 +27°C° 1.2 mm 4 mps 738 mmHg 74%
20:00 +23°C° 1.2 mm 6 mps 739 mmHg 88%
21:00 +22°C° 1.3 mm 4 mps 739 mmHg 90%
22:00 +22°C° 1.3 mm 3 mps 740 mmHg 93%
23:00 +22°C° 1.3 mm 1 mps 741 mmHg 96%

8 July, Wednesday

Time Temperature Precipitation Wind Pressure Humidity
00:00 +22°C° 0.5 mm 1 mps 741 mmHg 96%
01:00 +20°C° 0.5 mm 2 mps 741 mmHg 96%
02:00 +20°C° 0.5 mm 2 mps 741 mmHg 96%
03:00 +20°C° 0 mm 2 mps 741 mmHg 96%
04:00 +19°C° 0 mm 2 mps 741 mmHg 95%
05:00 +19°C° 0 mm 2 mps 741 mmHg 95%
06:00 +19°C° 0 mm 2 mps 742 mmHg 93%
07:00 +20°C° 0 mm 2 mps 742 mmHg 90%
08:00 +20°C° 0 mm 2 mps 743 mmHg 88%
09:00 +21°C° 0 mm 3 mps 743 mmHg 84%
10:00 +22°C° 0 mm 3 mps 743 mmHg 80%
11:00 +23°C° 0 mm 4 mps 743 mmHg 75%
12:00 +25°C° 0 mm 4 mps 744 mmHg 73%
13:00 +25°C° 0 mm 4 mps 744 mmHg 71%
14:00 +26°C° 0 mm 4 mps 744 mmHg 69%
15:00 +26°C° 0 mm 4 mps 744 mmHg 68%
16:00 +26°C° 0 mm 4 mps 743 mmHg 68%
17:00 +26°C° 0 mm 3 mps 743 mmHg 67%
18:00 +24°C° 0 mm 3 mps 744 mmHg 71%
19:00 +23°C° 0 mm 2 mps 744 mmHg 75%
20:00 +21°C° 0 mm 2 mps 744 mmHg 79%
21:00 +20°C° 0 mm 2 mps 744 mmHg 80%
22:00 +21°C° 0 mm 1 mps 745 mmHg 82%
23:00 +20°C° 0 mm 1 mps 745 mmHg 83%

9 July, Thursday

Time Temperature Precipitation Wind Pressure Humidity
00:00 +20°C° 0 mm 1 mps 745 mmHg 84%
01:00 +20°C° 0 mm 1 mps 746 mmHg 85%
02:00 +20°C° 0 mm 1 mps 746 mmHg 86%
03:00 +20°C° 0 mm 1 mps 746 mmHg 83%
04:00 +20°C° 0 mm 1 mps 746 mmHg 80%
05:00 +20°C° 0 mm 1 mps 746 mmHg 76%
06:00 +20°C° 0 mm 2 mps 746 mmHg 75%
07:00 +20°C° 0 mm 2 mps 746 mmHg 73%
08:00 +21°C° 0 mm 2 mps 747 mmHg 71%
09:00 +22°C° 0 mm 3 mps 747 mmHg 67%
10:00 +24°C° 0 mm 3 mps 747 mmHg 62%
11:00 +25°C° 0 mm 3 mps 747 mmHg 57%
12:00 +26°C° 0 mm 3 mps 747 mmHg 56%
13:00 +27°C° 0 mm 3 mps 747 mmHg 55%
14:00 +27°C° 0 mm 3 mps 746 mmHg 54%
15:00 +27°C° 0 mm 3 mps 746 mmHg 55%
16:00 +27°C° 0 mm 3 mps 746 mmHg 57%
17:00 +27°C° 0 mm 3 mps 746 mmHg 59%
18:00 +25°C° 0 mm 2 mps 746 mmHg 64%
19:00 +23°C° 0 mm 2 mps 745 mmHg 69%
20:00 +21°C° 0 mm 1 mps 745 mmHg 75%
21:00 +20°C° 0 mm 1 mps 746 mmHg 76%
22:00 +20°C° 0 mm 1 mps 746 mmHg 77%
23:00 +19°C° 0 mm 1 mps 746 mmHg 79%
Show more